Content
SEND FEEDBACK

Daily
Averages
Monthly
Summary
Brazil

TERESINA, PIAUI


Home > South America > Brazil > Piaui
Elevation: 99 meters     Latitude: 05 03S     Longitude: 042 48W

WEATHER
 
SELECT A DAY
Number of Records: 163,707;   Date Range: 6/30/96 - 7/28/14
 
SHARE

PRINT THIS DATA

[ ← Previous Day ]
WEATHER ALMANAC - 13 FEBRUARY, 2013
[ Next Day → ]
[ °F ]   °C
Weather ElementAverageHighLow
Temperature27.8 °C34 °C (2:00 pm)23 °C (10:00 pm)
Dewpoint23.9 °C25 °C (8:00 am)22 °C (8:00 pm)
Humidity80.9 %100 % (2:00 am)47 % (3:00 pm)
Barometer974.6 hPa1013.2 hPa (11:35 pm) (7:00 pm)
Wind Speed4.2 km/h16.7 km/h (9:20 pm)
Wind Gust38.9 km/h (9:20 pm)
Weather ElementAverage
Visibility11.4 km
Wind DirectionESE (114.4 °)

Weather ElementTotal
Precipitation---
Cooling Degree Days10.2 (Base 18.3)
Growing Degree Days18.5 (Base 10)
Averaged from 29 records on 13 February, 2013
WEATHER CONDITIONS BREAKOUT
WIND DIRECTION BREAKOUT
WEATHER BY HOUR - 13 FEBRUARY, 2013
[ °F ]   °C
Local TimeTemperatureDewpointHumidityBarometerVisibilityWind DirectionWind SpeedGust SpeedPrecipitationEventsConditions
1:00 AM24 °C23 °C94 %1009.1 hPaCalmClear
2:00 AM24 °C24 °C100 %1009.1 hPaCalmClear
3:00 AM23.9 °C23.3 °C97 %1008.5 hPa19.3 kmCalmMostly Cloudy
3:00 AM24 °C24 °C100 %1008.1 hPaCalmClear
4:00 AM24 °C23 °C94 %1008.1 hPaCalmClear
5:00 AM24 °C24 °C100 %1009.1 hPa10 kmCalmMostly Cloudy
6:00 AM25 °C24 °C94 %1009.1 hPa10 kmCalmMostly Cloudy
7:00 AM25 °C24 °C94 %1010.2 hPa10 kmSW (230°)1.9 km/hMostly Cloudy
8:00 AM28 °C25 °C84 %1011.2 hPa10 kmSSE (160°)1.9 km/hScattered Clouds
9:00 AM28.9 °C25 °C75 %1011.5 hPa19.3 kmCalmMostly Cloudy
9:00 AM29 °C25 °C79 %1011.2 hPa10 kmCalmMostly Cloudy
10:00 AM30 °C25 °C74 %1011.2 hPa10 kmSE (130°)3.7 km/hMostly Cloudy
11:00 AM31 °C25 °C70 %1011.2 hPa10 kmNNW (330°)1.9 km/hScattered Clouds
12:00 PM32 °C25 °C66 %1011.2 hPa10 kmSSE (150°)5.6 km/hMostly Cloudy
1:00 PM33 °C25 °C63 %1010.2 hPa10 kmEast (90°)3.7 km/hMostly Cloudy
2:00 PM34 °C24 °C56 %1008.1 hPa10 kmEast (80°)1.9 km/hScattered Clouds
3:00 PM33.9 °C23.9 °C47 %1006.8 hPa19.3 kmSouth (180°)5.6 km/hScattered Clouds
3:00 PM34 °C24 °C56 %1006.1 hPa10 kmSouth (180°)5.6 km/hPartly Cloudy
4:00 PM34 °C24 °C56 %1005.1 hPa10 kmSSW (210°)9.3 km/hPartly Cloudy
5:00 PM34 °C24 °C56 %1006.1 hPa10 kmSW (230°)3.7 km/hPartly Cloudy
6:00 PM33 °C25 °C63 %1006.1 hPa10 kmWSW (240°)3.7 km/hMostly Cloudy
7:00 PM31 °C25 °C70 %1007.1 hPa10 kmNW (310°)1.9 km/hThunderstormThunderstorm
8:00 PM26 °C22 °C78 %1009.1 hPa10 kmNorth (10°)14.8 km/hRain-ThunderstormLight Thunderstorms and Rain
9:00 PM23.9 °C22.8 °C92 %1010.5 hPa19.3 kmNorth (10°)9.3 km/hThunderstormThunderstorm
9:00 PM24 °C23 °C94 %1010.2 hPa10 kmNorth (10°)9.3 km/hThunderstormThunderstorm
9:20 PM24 °C23 °C94 %1012.2 hPa10 kmEast (80°)16.7 km/h38.9 km/hRain-ThunderstormHeavy Thunderstorms and Rain
10:00 PM23 °C23 °C100 %10 kmNW (310°)7.4 km/hRain-ThunderstormLight Thunderstorms and Rain
11:00 PM23 °C23 °C100 %1012.2 hPa10 kmNorth (10°)7.4 km/hRainLight Rain
11:35 PM23 °C23 °C100 %1013.2 hPa10 kmSE (140°)3.7 km/hRainLight Rain
Hourly data recorded from SBTE, located 0 kilometers away from Teresina, Piaui







STORIES FROM OUR PARTNERS